カタログに戻る

COSMOS 2590

運用中軍事HEO
NORAD 64527·PAYLOAD·🇷🇺 Russia

打ち上げ Jun 19, 2025 から Plesetsk Cosmodrome

Loading…

次のパス (今後24時間)

TLE

最新Source: Space-Track

元期: Sep 13, 2026, 22:37 UTC

1 64527U 25131D   26256.94268950 -.00000213  00000-0  00000+0 0  9996
2 64527   0.8055  82.5200 3640272  20.1569 313.5146  1.00214440  4494

AllMySatでCOSMOS 2590をリアルタイム追跡

Download on the App Store